2024-149CR

Last updated on Sun Sep 15 2024 00:02:04 GMT+0000 (Coordinated Universal Time)

1 60555U 24149CR 24258.50549421 .00015553 00000+0 14666-2 0 9995 2 60555 97.7470 333.5772 0010317 71.2262 289.0077 14.93831148 4277
UTC large
Height (km)
Speed (km/s)
/
Latitude / Longitude
Inclination (degrees)
Orbital Period (minutes)
Azimuth
Elevation
Range (km)
Doppler Factor

Next 0 passes for location: London (51.5072 / 0.1276)

Sorry there are no passes over London.